Location: Stanford
(52.2833°N, 2.4333°W)
Time: 03:09:00
(UTC+00:00)

NOSS 7 (H) - Pass Details

Date: 22 January 2021
Orbit: 369 x 1788 km, 63.3° (Epoch: 24 February)

Event Time Altitude Azimuth Distance (km) Brightness Sun altitude
Rises 17:31:39 0° 232° (SW) 2,454 9.9 -8.0°
Reaches altitude 10° 17:33:53 10° 236° (WSW) 1,480 8.6 -8.4°
Maximum altitude 17:36:59 62° 318° (NW) 432 4.4 -8.8°
Enters shadow 17:39:46 11° 41° (NE) 1,334 6.3 -9.2°
